Location: Fort Wayne
(41.1310°N, 85.1290°W)
Time: 18:11:41
(UTC-04:00)

Cosmos 1000 Rocket - Visible Passes

Search period start: 16 April 2014 00:00
Search period end: 26 April 2014 00:00
Orbit: 954 x 992 km, 82.9° (Epoch: 16 April)

Date Brightness Start Highest point End Pass type
(mag) Time Alt. Az. Time Alt. Az. Time Alt. Az.
16 Apr 6.2 01:20:39 10° NNW 01:23:56 25° NW 01:23:56 25° NW visible
16 Apr 5.1 23:59:30 10° N 00:04:06 50° NNE 00:04:06 50° NNE visible
17 Apr 6.7 01:46:38 10° NW 01:48:44 15° WNW 01:48:44 15° WNW visible
17 Apr 6.0 22:40:18 10° NNE 22:44:18 19° ENE 22:44:18 19° ENE visible
18 Apr 5.2 00:24:19 10° NNW 00:28:56 49° NW 00:28:56 49° NW visible
18 Apr 5.4 23:04:11 10° N 23:09:08 32° ENE 23:09:08 32° ENE visible
19 Apr 5.8 00:49:28 10° NNW 00:53:45 33° WNW 00:53:45 33° WNW visible
19 Apr 4.8 23:28:35 10° N 23:33:58 55° NE 23:33:58 55° NE visible
20 Apr 6.4 01:15:10 10° NW 01:18:36 19° WNW 01:18:36 19° WNW visible
20 Apr 6.1 22:09:52 10° NNE 22:13:25 16° ENE 22:14:12 15° ENE visible
20 Apr 4.6 23:53:18 10° N 23:58:50 70° NW 23:58:50 70° NW visible
21 Apr 6.9 01:43:24 10° WNW 01:43:28 10° WNW 01:43:28 10° WNW visible
21 Apr 5.5 22:33:27 10° NNE 22:38:39 28° ENE 22:39:04 27° E visible
22 Apr 5.3 00:18:21 10° NNW 00:23:42 43° WNW 00:23:42 43° WNW visible
22 Apr 4.7 22:57:42 10° N 23:03:41 49° ENE 23:03:57 48° E visible
23 Apr 6.1 00:43:49 10° NNW 00:48:35 24° W 00:48:35 24° W visible
23 Apr 6.3 21:39:41 10° NE 21:42:15 13° ENE 21:44:13 11° E visible
23 Apr 4.3 23:22:20 10° N 23:28:32 86° E 23:28:51 81° SSE visible
24 Apr 6.7 01:10:21 10° NW 01:12:55 13° W 01:13:29 13° W visible
24 Apr 5.7 22:02:46 10° NNE 22:07:33 23° ENE 22:09:08 21° E visible
24 Apr 4.9 23:47:15 10° NNW 23:53:14 53° W 23:53:46 51° WSW visible
25 Apr 5.0 22:26:52 10° N 22:32:38 40° ENE 22:34:04 35° ESE visible
